Location: Unspecified
(43.4354°N, 0.0000°E)
Time: 02:52:26
(UTC+00:00)

Courier 1B - Pass Details

Date: 26 June 2019
Orbit: 962 x 1209 km, 28.3° (Epoch: 23 July)

Event Time Altitude Azimuth Distance (km) Brightness Sun altitude
Rises 16:46:40 0° 224° (SW) 3,707 11.0 29.4°
Reaches altitude 10° 16:50:11 10° 206° (SSW) 2,797 10.2 28.7°
Maximum altitude 16:54:36 18° 165° (SSE) 2,298 9.4 27.9°
Drops below altitude 10° 16:59:11 10° 125° (SE) 2,917 9.6 27.1°
Sets 17:02:57 0° 108° (ESE) 3,927 10.1 26.4°
